Skip Page Navigation
NASA JPL Caltech
NASA Logo - Jet Propulsion Laboratory + View the NASA Portal
+ Center for Near-Earth Object Studies
JPL Home Earth Solar System Stars & Galaxies Technology
JPL Solar System Dynamics
BODIES ORBITS EPHEMERIDES TOOLS PHYSICAL DATA DISCOVERY FAQ SITE MAP
JPL Small-Body Database Browser
Search: [ help ]  
192117 (2006 DF27)
Classification: Main-belt Asteroid          SPK-ID: 2192117
Ephemeris | Orbit Diagram | Orbital Elements | Mission Design | Physical Parameters | Discovery Circumstances | Close-Approach Data ]

[ show orbit diagram ]
Orbital Elements at Epoch 2459200.5 (2020-Dec-17.0) TDB
Reference: JPL 14 (heliocentric ecliptic J2000)
 Element Value Uncertainty (1-sigma)   Units 
e .1064133610929701 6.7032e-08  
a 3.061890135330497 3.4275e-08 au
q 2.73606411473257 1.9071e-07 au
i 3.545956516579684 5.6882e-06 deg
node 156.3219885181964 9.4239e-05 deg
peri 185.6408002108686 9.9748e-05 deg
M 108.3624780694956 2.8823e-05 deg
tp 2458611.440370988271
(2019-May-07.94037099)
0.00015867 TDB
period 1956.963980726078
5.36
3.2859e-05
8.996e-08
d
yr
n .1839584190335643 3.0888e-09 deg/d
Q 3.387716155928424 3.7922e-08 au
  Orbit Determination Parameters
   # obs. used (total)      207  
   data-arc span      6331 days (17.33 yr)  
   first obs. used      2003-09-19  
   last obs. used      2021-01-18  
   planetary ephem.      DE441  
   SB-pert. ephem.      SB441-N16  
   condition code      0  
   norm. resid. RMS      .52704  
   source      ORB  
   producer      Otto Matic  
   solution date      2021-Apr-13 22:14:45  

Additional Information
 Earth MOID = 1.72597 au 
 Jupiter MOID = 1.98969 au 
 T_jup = 3.222 
[ show covariance matrix ]

Ephemeris | Orbit Diagram | Orbital Elements | Mission Design | Physical Parameters | Discovery Circumstances | Close-Approach Data ]

Physical Parameter Table
Parameter Symbol Value Units Sigma Reference Notes
absolute magnitude H 16.51   n/a MPCxxxxx  

192117 (2006 DF27)          Discovered 2006-Feb-20 by Spacewatch at Kitt Peak
Reference: 20080917/Numbers.arcLast Updated: 2008-09-19

[ hide close-approach data ]
Close-Approach Data   ...sorted by Date/Time (TDB)
Date/Time (TDB) Time Uncertainty
(days_HH:MM)
Body Nominal Distance (au) Minimum Distance (au) Maximum Distance (au) V-relative (km/s) V-infinity (km/s) JD (TDB) Time Uncertainty (minutes) Semi-major axis (km) Semi-minor axis (km) range-LOV angle (deg) N-sigma BP Orbit Ref. Reference Modified
1919-Sep-13 21:44 00:05 Jupiter 1.97319366036358 1.9731929528835 1.97319436784445 2.84300743885827 2.68778008200322 2422215.405834798 4.63212662655239 140.873038211939 20.9824212844921 -82.9450989897501 2323663.75492946 T 14 CATAB v2.0f-lin.ifort 2021-Apr-13 22:14:45 2021-Apr-13 22:14
2026-Dec-08 14:47 < 00:01 Jupiter 1.9838389891065 1.9838382788802 1.98383969933269 2.80072882988289 2.64389094723716 2461383.115951039 0.768266281603387 65.2104609576792 16.9155522468425 80.9108059882082 1953099.55493838 T 14 CATAB v2.0f-lin.ifort 2021-Apr-13 22:14:45 2021-Apr-13 22:14
2085-May-13 11:51 00:04 Jupiter 1.99649339015829 1.99649252563501 1.99649425468157 3.06382427130952 2.92207271593502 2482723.993591976 3.52929926690597 76.8081427521349 18.2178414113082 77.6029726260686 1560876.65997723 T 14 CATAB v2.0f-lin.ifort 2021-Apr-13 22:14:45 2021-Apr-13 22:14
2192-Aug-08 18:37 00:09 Jupiter 1.99224301746029 1.99224212442116 1.9922439105069 2.93465504536339 2.78601503291368 2521892.275495423 8.8011497628686 253.780954089077 16.1535176358866 87.9867230542447 2238758.92060758 T 14 CATAB v2.0f-lin.ifort 2021-Apr-13 22:14:45 2021-Apr-13 22:14
Ephemeris | Orbit Diagram | Orbital Elements | Mission Design | Physical Parameters | Discovery Circumstances | Close-Approach Data ]
ABOUT SSD CREDITS/AWARDS PRIVACY/COPYRIGHT GLOSSARY LINKS
FirstGov 2021-Jun-25 06:41 UT
(server date/time)  
NASA Home Page
Site Manager:   Ryan S. Park
Webmaster  Alan B. Chamberlin